Location: Alsip
(41.6689°N, 87.7387°W)
Time: 17:07:09
(UTC+00:00)

STARLINK-2732 - Pass Details

Date: 01 August 2021
Orbit: 546 x 548 km, 53.1° (Epoch: 22 September)

Event Time Altitude Azimuth Distance (km) Brightness Sun altitude
Rises 02:15:08 0° 303° (WNW) 2,716 9.4 -11.3°
Reaches altitude 10° 02:17:26 10° 298° (WNW) 1,819 7.8 -11.7°
Maximum altitude 02:21:24 47° 224° (SW) 727 4.3 -12.3°
Enters shadow 02:24:19 17° 156° (SSE) 1,423 5.2 -12.7°
